Regional Weather Roundup
Issued by NWS Binghamton, NY

Home | Current Version | Previous Version | Text Only | Print | Product List | Glossary On
Versions: 1 2 3 4 5 6 7 8 9 10 11 12 13 14 15 16 17 18 19 20 21 22 23 24 25 26 27 28 29 30 31 32 33 34 35 36 37 38 39 40 41 42 43 44 45 46 47 48 49 50
000
ASUS41 KBGM 051510
RWRBGM

REGIONAL WEATHER ROUNDUP
NATIONAL WEATHER SERVICE BINGHAMTON NY
1000 AM EST THU DEC 05 2019

Note: "fair" indicates few or no clouds below 12,000 feet with no
significant weather and/or obstructions to visibility.

* = Station(s) that does not report precipitation, such as rain,
snow, etc, also no thunder or fog.

NYZ009-015>018-022>025-036-037-044>046-055>057-062-051600
...Central New York...

CITY           SKY/WX    TMP DP  RH WIND       PRES   REMARKS
Binghamton     CLOUDY    29  21  72 W12       29.73R WCI  19
Cortland       LGT SNOW  30  28  93 W12G20    29.75R WCI  21
Dansville      PTSUNNY   35  23  61 W16G30    29.81R WCI  25
Elmira         CLOUDY    34  24  67 W9        29.79R WCI  27
Endicott       CLOUDY    32  21  64 W8        29.79R WCI  25
Ithaca         CLOUDY    31  23  72 W14       29.77R WCI  21
Hamilton       CLOUDY    30  23  74 NW7G18    29.73R WCI  23
Monticello     MIX PCPN  30  23  74 NW20G25   29.71R VSB 1   WCI  18
Norwich        LGT SNOW  30  23  74 NW6       29.75R WCI  24
Oneonta        SUNNY     28  25  86 W8G16     29.69R WCI  20
Penn Yan       FLURRIES  32  22  66 W10       29.78R WCI  24
Rome           FAIR      32  25  75 W13       29.75R WCI  22
Seneca Falls   LGT SNOW  32  27  80 W12G23    29.80R WCI  23
Sidney         CLOUDY    30  25  80 MISG      29.76R
Skaneateles    PTSUNNY   30  27  86 W10       29.75R WCI  21
Syracuse       CLOUDY    33  27  78 W13       29.76R WCI  24
$$

PAZ038>040-043-044-047-048-072-051600
...Northeast Pennsylvania...

CITY           SKY/WX    TMP DP  RH WIND       PRES   REMARKS
Hazleton       LGT SNOW  32  27  80 W6        29.81R WCI  26
Scranton       CLOUDY    35  22  58 NW13      29.79R WCI  26
$$
&&
KEY
WCI = Wind Chill Index
VSB = Visibility
HX  = Heat Index
$$



USA.gov is the U.S. government's official web portal to all federal, state and local government web resources and services.